Location: Tucson
(32.2217°N, 110.9265°W)
Time: 03:09:31
(UTC-07:00)

Tiros 1 - Pass Details

Date: 02 November 2021
Orbit: 630 x 663 km, 48.4° (Epoch: 07 December)

Event Time Altitude Azimuth Distance (km) Brightness Sun altitude
Rises 10:39:20 0° 316° (NW) 2,986 10.1 38.3°
Reaches altitude 10° 10:43:03 10° 345° (NNW) 2,066 9.4 38.7°
Maximum altitude 10:45:10 13° 11° (NNE) 1,882 9.3 38.9°
Drops below altitude 10° 10:47:17 10° 38° (NE) 2,057 9.6 39.1°
Sets 10:50:58 0° 67° (ENE) 2,958 10.6 39.4°
